Weather History for Newton, KS

Change the Weather History Date:

Wednesday, May 13, 2009

  Actual Average Record
Temperature  
Mean Temperature 74 °F -  
Max Temperature 84 °F 72 °F 84 °F (1998)
Min Temperature 64 °F 52 °F 39 °F (1997)
Cooling Degree Days 9    
Growing Degree Days 24 (Base 50)    
Moisture  
Dew Point 63 °F    
Average Humidity 73    
Maximum Humidity 100    
Minimum Humidity 51    
Precipitation  
Precipitation 0.00 in - - ()
Sea Level Pressure  
Sea Level Pressure 29.58 in    
Wind  
Wind Speed 19 mph (SSW)    
Max Wind Speed 26 mph    
Max Gust Speed 33 mph    
Visibility 9 miles    
Events      
Averages and records for this station are not official NWS values.
T = Trace of Precipitation, MM = Missing Value Source: NWS Daily Summary

Daily Weather History Graph

Daily Weather History Graph

Search for Another Location

Airport:

Trip Planner

Search our weather history database for the weather conditions in past years. The results will help you decide how hot, cold, wet, or windy it might be!

Date:

Astronomy

May. 13, 2009 Rise Set
Actual Time 6:20 AM CDT 8:31 PM CDT
Civil Twilight 5:50 AM CDT 9:00 PM CDT
Nautical Twilight 5:14 AM CDT 9:36 PM CDT
Astronomical Twilight 4:35 AM CDT 10:16 PM CDT
Moon 12:07 AM CDT (5/13) 9:34 AM CDT (5/13)
Length of Visible Light 15h 10m
Length of Day
14h 11m
Waning Gibbous, 82% of the Moon is Illuminated
May 13
Waning Gibbous
May 17
Last Quarter
May 24
New
May 30
First Quarter
Jun 7
Full

Hourly Weather History & Observations

Time (CDT) Temp. Heat Index Dew Point Humidity Pressure Visibility Wind Dir Wind Speed Gust Speed Precip Events Conditions
12:15 AM 64.4 °F - 62.6 °F 94% 29.62 in 5.0 mi South 21.9 mph 29.9 mph N/A   Overcast
12:35 AM 64.4 °F - 62.6 °F 94% 29.60 in 5.0 mi South 20.7 mph 25.3 mph N/A   Overcast
12:55 AM 64.4 °F - 62.6 °F 94% 29.60 in 5.0 mi SSE 17.3 mph 26.5 mph N/A   Overcast
1:15 AM 64.4 °F - 64.4 °F 100% 29.58 in 7.0 mi SSE 20.7 mph 28.8 mph N/A   Overcast
1:35 AM 66.2 °F - 64.4 °F 94% 29.56 in 6.0 mi SSE 17.3 mph 21.9 mph N/A   Overcast
1:55 AM 66.2 °F - 64.4 °F 94% 29.54 in 7.0 mi SSE 16.1 mph 26.5 mph N/A   Overcast
2:15 AM 66.2 °F - 64.4 °F 94% 29.54 in 7.0 mi South 19.6 mph 25.3 mph N/A   Overcast
2:35 AM 66.2 °F - 64.4 °F 94% 29.55 in 7.0 mi South 18.4 mph 27.6 mph N/A   Overcast
2:55 AM 68.0 °F - 64.4 °F 88% 29.56 in 8.0 mi South 26.5 mph 32.2 mph N/A   Overcast
3:15 AM 68.0 °F - 64.4 °F 88% 29.53 in 10.0 mi South 21.9 mph 32.2 mph N/A   Overcast
3:35 AM 66.2 °F - 64.4 °F 94% 29.53 in 8.0 mi South 16.1 mph 24.2 mph N/A   Mostly Cloudy
3:55 AM 66.2 °F - 64.4 °F 94% 29.53 in 8.0 mi South 16.1 mph 19.6 mph N/A   Scattered Clouds
4:15 AM 66.2 °F - 64.4 °F 94% 29.52 in 7.0 mi South 13.8 mph - N/A   Partly Cloudy
4:35 AM 66.2 °F - 62.6 °F 88% 29.52 in 8.0 mi South 13.8 mph 19.6 mph N/A   Clear
4:55 AM 66.2 °F - 62.6 °F 88% 29.52 in 10.0 mi South 17.3 mph - N/A   Clear
5:15 AM 66.2 °F - 62.6 °F 88% 29.53 in 10.0 mi South 17.3 mph 23.0 mph N/A   Clear
5:35 AM 66.2 °F - 60.8 °F 83% 29.52 in 10.0 mi South 18.4 mph 25.3 mph N/A   Clear
5:55 AM 66.2 °F - 59.0 °F 78% 29.52 in 10.0 mi South 17.3 mph 29.9 mph N/A   Clear
6:15 AM 66.2 °F - 57.2 °F 73% 29.53 in 10.0 mi South 21.9 mph 27.6 mph N/A   Clear
6:35 AM 66.2 °F - 57.2 °F 73% 29.52 in 10.0 mi South 25.3 mph 33.4 mph N/A   Clear
6:55 AM 66.2 °F - 57.2 °F 73% 29.52 in 10.0 mi South 21.9 mph 29.9 mph N/A   Clear
7:15 AM 66.2 °F - 57.2 °F 73% 29.52 in 10.0 mi SSW 23.0 mph 29.9 mph N/A   Clear
7:35 AM 68.0 °F - 57.2 °F 68% 29.53 in 10.0 mi SSW 20.7 mph 31.1 mph N/A   Clear
7:55 AM 68.0 °F - 57.2 °F 68% 29.53 in 10.0 mi SSW 20.7 mph 29.9 mph N/A   Clear
8:15 AM 69.8 °F - 57.2 °F 64% 29.54 in 10.0 mi SSW 20.7 mph 31.1 mph N/A   Clear
8:35 AM 69.8 °F - 59.0 °F 68% 29.56 in 10.0 mi SSW 21.9 mph 27.6 mph N/A   Clear
8:55 AM 69.8 °F - 60.8 °F 73% 29.57 in 10.0 mi SSW 18.4 mph 25.3 mph N/A   Clear
9:15 AM 71.6 °F - 62.6 °F 73% 29.56 in 10.0 mi SSW 20.7 mph 32.2 mph N/A   Partly Cloudy
9:35 AM 73.4 °F - 64.4 °F 73% 29.56 in 10.0 mi SSW 20.7 mph 27.6 mph N/A   Mostly Cloudy
9:55 AM 73.4 °F - 64.4 °F 73% 29.56 in 10.0 mi SSW 18.4 mph 31.1 mph N/A   Mostly Cloudy
10:15 AM 73.4 °F - 64.4 °F 73% 29.56 in 10.0 mi SSW 18.4 mph 31.1 mph N/A   Overcast
10:35 AM 75.2 °F - 66.2 °F 73% 29.56 in 10.0 mi SSW 23.0 mph 27.6 mph N/A   Overcast
10:55 AM 75.2 °F - 64.4 °F 69% 29.57 in 10.0 mi SSW 18.4 mph 29.9 mph N/A   Overcast
11:15 AM 75.2 °F - 64.4 °F 69% 29.57 in 10.0 mi SSW 19.6 mph 27.6 mph N/A   Overcast
11:35 AM 75.2 °F - 66.2 °F 73% 29.58 in 10.0 mi SSW 18.4 mph 28.8 mph N/A   Overcast
11:55 AM 75.2 °F - 66.2 °F 73% 29.58 in 10.0 mi SSW 23.0 mph 28.8 mph N/A   Overcast
12:15 PM 77.0 °F - 66.2 °F 69% 29.58 in 10.0 mi SSW 21.9 mph 26.5 mph N/A   Overcast
12:35 PM 78.8 °F - 68.0 °F 69% 29.57 in 10.0 mi SSW 18.4 mph - N/A   Mostly Cloudy
12:55 PM 80.6 °F 82.7 °F 66.2 °F 61% 29.58 in 10.0 mi SSW 19.6 mph 23.0 mph N/A   Mostly Cloudy
1:15 PM 80.6 °F 82.7 °F 66.2 °F 61% 29.58 in 10.0 mi SSW 19.6 mph 25.3 mph N/A   Overcast
1:35 PM 80.6 °F 82.7 °F 66.2 °F 61% 29.59 in 10.0 mi SSW 12.7 mph - N/A   Overcast
1:55 PM 80.6 °F 82.7 °F 66.2 °F 61% 29.60 in 10.0 mi SW 13.8 mph - N/A   Overcast
2:15 PM 82.4 °F 85.4 °F 68.0 °F 62% 29.59 in 10.0 mi SW 12.7 mph 16.1 mph N/A   Scattered Clouds
2:35 PM 82.4 °F 84.6 °F 66.2 °F 58% 29.60 in 10.0 mi SW 11.5 mph 19.6 mph N/A   Mostly Cloudy
2:55 PM 82.4 °F 83.9 °F 64.4 °F 54% 29.60 in 10.0 mi West 13.8 mph 18.4 mph N/A   Overcast
3:15 PM 82.4 °F 83.9 °F 64.4 °F 54% 29.60 in 10.0 mi West 12.7 mph - N/A   Overcast
3:35 PM 84.2 °F 85.6 °F 64.4 °F 51% 29.61 in 10.0 mi WNW 12.7 mph - N/A   Mostly Cloudy
3:55 PM 80.6 °F 82.7 °F 66.2 °F 61% 29.62 in 10.0 mi NNW 18.4 mph 21.9 mph N/A   Mostly Cloudy
4:15 PM 80.6 °F 82.7 °F 66.2 °F 61% 29.63 in 10.0 mi North 18.4 mph 24.2 mph N/A   Mostly Cloudy
4:35 PM 78.8 °F - 64.4 °F 61% 29.65 in 10.0 mi NNW 16.1 mph 20.7 mph N/A   Mostly Cloudy
4:55 PM 78.8 °F - 66.2 °F 65% 29.65 in 10.0 mi NNW 16.1 mph - N/A   Mostly Cloudy
5:15 PM 78.8 °F - 64.4 °F 61% 29.66 in 10.0 mi North 20.7 mph 25.3 mph N/A   Mostly Cloudy
5:35 PM 77.0 °F - 64.4 °F 65% 29.68 in 10.0 mi NNW 18.4 mph 26.5 mph N/A   Overcast
5:55 PM 75.2 °F - 62.6 °F 65% 29.70 in 10.0 mi NNW 18.4 mph 26.5 mph N/A   Overcast
6:15 PM 75.2 °F - 57.2 °F 53% 29.70 in 10.0 mi NNW 16.1 mph 25.3 mph N/A   Overcast
6:35 PM 75.2 °F - 57.2 °F 53% 29.70 in 10.0 mi NNW 20.7 mph 24.2 mph N/A   Partly Cloudy
6:55 PM 75.2 °F - 57.2 °F 53% 29.71 in 10.0 mi North 20.7 mph 24.2 mph N/A   Clear
7:15 PM 73.4 °F - 57.2 °F 57% 29.72 in 10.0 mi North 16.1 mph 24.2 mph N/A   Clear
7:35 PM 73.4 °F - 53.6 °F 50% 29.74 in 10.0 mi North 20.7 mph 27.6 mph N/A   Scattered Clouds
7:55 PM 71.6 °F - 53.6 °F 53% 29.77 in 10.0 mi North 13.8 mph 24.2 mph N/A   Scattered Clouds
8:15 PM 69.8 °F - 51.8 °F 53% 29.80 in 10.0 mi North 15.0 mph 23.0 mph N/A   Clear
8:35 PM 68.0 °F - 51.8 °F 56% 29.80 in 10.0 mi North 15.0 mph 19.6 mph N/A   Clear
8:55 PM 66.2 °F - 51.8 °F 60% 29.80 in 10.0 mi North 11.5 mph - N/A   Clear
9:15 PM 64.4 °F - 51.8 °F 64% 29.81 in 10.0 mi North 10.4 mph - N/A   Clear
9:35 PM 64.4 °F - 51.8 °F 64% 29.84 in 10.0 mi North 11.5 mph - N/A   Clear
9:55 PM 64.4 °F - 48.2 °F 56% 29.85 in 10.0 mi North 19.6 mph - N/A   Clear
10:15 PM 62.6 °F - 48.2 °F 59% 29.88 in 10.0 mi North 15.0 mph 19.6 mph N/A   Clear
10:35 PM 62.6 °F - 44.6 °F 52% 29.90 in 10.0 mi North 15.0 mph - N/A   Clear
10:55 PM 62.6 °F - 44.6 °F 52% 29.91 in 10.0 mi North 12.7 mph 18.4 mph N/A   Clear
11:15 PM 60.8 °F - 42.8 °F 52% 29.94 in 10.0 mi North 9.2 mph - N/A   Clear
11:35 PM 60.8 °F - 42.8 °F 52% 29.96 in 10.0 mi North 11.5 mph - N/A   Clear
11:55 PM 60.8 °F - 41.0 °F 48% 29.96 in 10.0 mi North 10.4 mph 17.3 mph N/A   Clear